TITAN 3C TRANSTAGE DEB, 26050

Orbit data source: Space-Track

TITAN 3C TRANSTAGE DEB, 26050 is space debris in HEO originally from a launch on Tue, 21 Dec 1965 UTC launched from the Air Force Eastern Test Range (AFETR). Debris objects in space refer to the collection of defunct objects orbiting the Earth. Examples of debris include non-operational satellites, rocket bodies, and fragments generated from explosions, collisions, or faulty payload assembly.

Loading next visibility...
Identifier
26050, 1965-108AJ
Orbit
HEO
Country
Flag of USUS
Related business
Manufacturer
Unknown
Mission
Spacecraft
Bus & Motor
Unknown
Mass
Unknown
Launch date (UTC)
1965-12-21 (61 years ago)
Launch vehicle
Unknown
Launch site
Air Force Eastern Test Range (AFETR)
Object type
Payload
Rocket body
Debris
Shape & HBR
Unknown shape, 0.1 m
Radar Cross Section
Medium (>0.1 m² and <1 m²)

Expand to show TLE details & history
Last TLE update: 1 week ago

TLE from 1 week ago
0 TITAN 3C TRANSTAGE DEB
1 26050U 65108AJ  26171.18899323  .00000060  00000-0  32253-2 0  9996
2 26050  26.1969 228.2593 6632107 269.7305  20.1414  2.69854844266305
Epoch: 2026-06-20T04:32Z
TLE epoch observation values (Epoch: 2026-06-20T04:32:09.015Z)
Latitude
-0.00001°
Longitude
-108.09873°
Altitude
5,896.877 km
Speed
6.83 km/s
True Right ascension
15h 13m 23s
True Declination
0° 00' 00"
Sunlit
Object was in daylight at epoch
Visualization orbit readout
Latitude
Unknown
Longitude
Unknown
Altitude
Unknown
Speed
Unknown
Apparent Right ascension
Unknown
Apparent Declination
Unknown
Sunlit
N/A
Visualization observer readout
Local Sidereal Time
05:59:55
Azimuth
Unknown
Elevation
Unknown
Doppler factor
Unknown
Orbital elements
Apogee altitude
29,873.744 km
Perigee altitude
962.632 km
Semi-major axis
21,796.325 km
Eccentricity
0.66321
Inclination
26.1969°
RAAN
228.2593°
Arg. of periapsis
269.7305°
True anomaly
90.30052°
Mean anomaly
20.1414°
Eccentric anomaly
48.68011°
Mean motion
0.67448 °/min
Orbital period
533.75 mins
BSTAR
0.0032253
Loading maneuver chart data...
Computing Atmospheric mass density...

Documentation

Showing up to 5 results
|